If you wish to contribute or participate in the discussions about articles you are invited to join SKYbrary as a registered user

 Actions

Aniak Airport

From SKYbrary Wiki

PANI
Airport
ICAO: PANI
Summary
Name Aniak Airport
Region North America
Territory Alaska US.gif
Location Aniak
Serving
Coordinates 61° 34' 53.0004", -159° 32' 34.0008"
Runways
Designator Length Width Surface ROPS
05W/23W 914 m2,998.688 ft 122 m400.262 ft WATER /
10/28 1829 m6,000.656 ft 46 m150.919 ft ASPH-F yes/yes


METAR
Observation PANI 250556Z AUTO 22006KT 10SM FEW025 OVC042 09/07 A2975 RMK AO2 RAE0459 SLP044 P0000 60009 T00890072 10106 20083 53018
Station Aniak, Aniak Airport
Date/Time 25 September 2018 05:56:00
Wind direction 220°
Wind speed 06 kts
Lowest cloud amount few clouds
Temperature 8.9°C
Dew point 7.2°C
Humidity 89%
QNH hPa
Weather condition n/a

BS
Tag(s) Bird Strike
BS
Tag(s) Non Avian Wildlife Hazards to Aircraft
CFIT
Tag(s) Altimeter Temperature Error Correction

Aniak Airport

ICAO: PANI IATA: ANI

Description

Regional airport serving the town of Aniak, Alaska.

Climatology

Subarctic climate (Köppen climate classification Dfc) - long, usually very cold winters, and short, cool to mild summers.

Maps

Terrain

Loading map...

Airport Layout

Loading map...


Accidents & Serious Incidents at or in vicinity of PANI

None on SKYbrary